Spokane Fairchild, WA
on Friday, February 15, 2013

Friday
Previous Day Next Day
Daily Summary
 ActualAverage (KGEG)Record (KGEG)
Temperature
Mean Temperature °F 33°F  
Max Temperature 46°F 39°F 56°F (1982)
Min Temperature 24°F 26°F -16°F (1936)
Degree Days
Heating Degree Days 30 32  
Month to date heating degree days 494  
Since 1 July heating degree days 4427  
Cooling Degree Days 0 0  
Month to date cooling degree days 0  
Year to date cooling degree days 0  
Moisture
Dew Point 29°F   
Average Humidity 88    
Maximum Humidity 100    
Minimum Humidity 63    
Precipitation
Precipitation 0.00 in 0.04 in 0.56 in (1986)
Month to date precipitation 0.70  
Year to date precipitation 2.49  
Snow
Snow 0.00 in 0.30 in 6.80 in (1990)
Month to date snowfall 4.0  
Since 1 July snowfall 37.5  
Snow Depth in   
Wind
Wind Speed 3 mph   
Max Wind Speed 8 mph   
Max Gust Speed mph   
Visibility 10 miles   
Events     

Key: T is trace of precipitation, MM is missing value
Source: NWS Daily Summary
Time(PST)TemperatureDew PointHumidity Pressure Visibility Wind DirectionWind SpeedGust SpeedPrecipitationEvents Conditions
12:58 AM 28.9°F 27.7°F 95% 30.57 in 10.0 miles Calm Calm - N/A   Clear
1:29 AM 28.4°F 26.6°F 93% 30.48 in 10.0 miles Calm Calm - N/A   Clear
1:39 AM 26.6°F 24.8°F 93% 30.47 in 10.0 miles SW 3.5 mph - N/A   Clear
1:58 AM 25.9°F 24.8°F 96% 30.56 in 10.0 miles West 2.3 mph - 0.00 in   Clear
2:07 AM 24.8°F 23.0°F 93% 30.48 in 10.0 miles North 1.2 mph - N/A   Clear
2:22 AM 26.6°F 26.6°F 100% 30.48 in 10.0 miles North 4.6 mph - N/A   Clear
2:36 AM 26.6°F 26.6°F 100% 30.49 in 10.0 miles North 2.3 mph - N/A   Clear
2:53 AM 26.6°F 26.6°F 100% 30.48 in 10.0 miles NNE 5.8 mph - N/A   Clear
2:58 AM 26.6°F 26.6°F 100% 30.56 in 10.0 miles NNE 5.8 mph - 0.00 in   Clear
3:58 AM 25.0°F 24.3°F 97% 30.56 in 10.0 miles East 4.6 mph - N/A   Clear
4:58 AM 25.7°F 25.5°F 99% 30.56 in 10.0 miles ENE 4.6 mph - N/A   Clear
5:58 AM 25.0°F 24.3°F 97% 30.58 in 10.0 miles ENE 4.6 mph - N/A   Clear
6:25 AM 24.8°F 24.8°F 100% 30.47 in 10.0 miles East 4.6 mph - N/A   Clear
6:34 AM 24.8°F 24.8°F 100% 30.48 in 10.0 miles East 3.5 mph - N/A   Clear
6:58 AM 25.2°F 25.0°F 99% 30.57 in 10.0 miles ENE 5.8 mph - 0.00 in   Clear
7:21 AM 24.8°F 24.8°F 100% 30.48 in 10.0 miles NNE 6.9 mph - N/A   Clear
7:34 AM 24.8°F 24.8°F 100% 30.48 in 10.0 miles NE 4.6 mph - N/A   Clear
7:58 AM 28.2°F 28.0°F 99% 30.57 in 10.0 miles NNE 5.8 mph - 0.00 in   Clear
8:18 AM 28.4°F 28.4°F 100% 30.48 in 10.0 miles ESE 2.3 mph - N/A   Clear
8:39 AM 32.0°F 30.2°F 93% 30.48 in 10.0 miles NE 2.3 mph - N/A   Clear
8:58 AM 32.2°F 30.9°F 95% 30.56 in 10.0 miles East 2.3 mph - 0.00 in   Clear
9:58 AM 36.7°F 32.7°F 86% 30.55 in 10.0 miles NNE 5.8 mph - N/A   Clear
10:21 AM 39.2°F 33.8°F 81% 30.47 in 10.0 miles NE 5.8 mph - N/A   Clear
10:36 AM 39.2°F 33.8°F 81% 30.47 in 10.0 miles East 3.5 mph - N/A   Clear
10:58 AM 40.3°F 34.3°F 79% 30.54 in 10.0 miles ENE 4.6 mph - 0.00 in   Clear
11:05 AM 41.0°F 33.8°F 76% 30.47 in 10.0 miles ENE 5.8 mph - N/A   Clear
11:44 AM 42.8°F 33.8°F 70% 30.45 in 10.0 miles Variable 3.5 mph - N/A   Clear
11:58 AM 43.5°F 34.7°F 71% 30.52 in 10.0 miles SSE 5.8 mph - 0.00 in   Clear
12:58 PM 46.2°F 35.2°F 66% 30.50 in 10.0 miles South 5.8 mph - N/A   Clear
1:58 PM 46.9°F 34.9°F 63% 30.47 in 10.0 miles SW 5.8 mph - N/A   Clear
2:58 PM 46.2°F 35.1°F 65% 30.45 in 10.0 miles North 5.8 mph - N/A   Clear
3:58 PM 44.6°F 34.7°F 68% 30.43 in 10.0 miles NNE 8.1 mph - N/A   Clear
4:58 PM 41.9°F 33.8°F 73% 30.42 in 10.0 miles NNE 5.8 mph - N/A   Clear
5:58 PM 39.6°F 32.7°F 76% 30.40 in 10.0 miles NNE 4.6 mph - N/A   Clear
6:58 PM 37.4°F 31.8°F 80% 30.38 in 10.0 miles NNE 4.6 mph - N/A   Clear
7:58 PM 34.7°F 31.1°F 87% 30.36 in 10.0 miles ENE 3.5 mph - N/A   Clear
8:58 PM 34.3°F 31.6°F 90% 30.33 in 10.0 miles NE 2.3 mph - N/A   Clear
9:58 PM 32.7°F 30.2°F 90% 30.32 in 10.0 miles Calm Calm - N/A   Clear
10:54 PM 32.0°F 28.4°F 87% 30.24 in 10.0 miles NNE 4.6 mph - N/A   Clear
10:58 PM 32.5°F 29.1°F 87% 30.30 in 10.0 miles NNE 4.6 mph - 0.00 in   Clear
11:10 PM 32.0°F 30.2°F 93% 30.24 in 10.0 miles NNE 5.8 mph - N/A   Clear
11:58 PM 30.7°F 28.8°F 92% 30.29 in 10.0 miles NE 6.9 mph - 0.00 in   Clear
Moon Phase
Feb. 15 Feb. 17 Feb. 25 Mar. 04 Mar. 11
Sunrise:06:55 AM (PST) Moon Rise:09:06 AM (PST)2/15
Sunset:05:14 PM (PST) Moon Set:11:50 PM (PST)2/15

Copyright © 2014 The Weather Underground, Inc.